Location: Ferchesar
(52.6477°N, 12.4298°E)
Time: 00:38:17
(UTC+01:00)

Transit 2A Rocket - Pass Details

Date: 15 December 2021
Orbit: 584 x 918 km, 66.7° (Epoch: 21 January)

Event Time Altitude Azimuth Distance (km) Brightness Sun altitude
Exits shadow 06:24:21 - 235° (SW) 2,868 7.6 -15.6°
Reaches altitude 10° 06:25:18 10° 237° (WSW) 2,524 7.3 -15.4°
Maximum altitude 06:31:09 59° 317° (NW) 1,040 5.4 -14.6°
Drops below altitude 10° 06:37:15 10° 37° (NE) 2,622 8.0 -13.7°
Sets 06:39:50 0° 41° (NE) 3,563 8.7 -13.3°
